Flag for Germany Weather past 2 weeks in Emsdetten, North Rhine-Westphalia, Germany

Now
82 °F

Sunny.


Feels Like: 82 °F
Forecast: 60 / 77 °F
Wind: 10 mph from Northeast

Location: Muenster / Osnabrueck

Current Time: Jul 23, 2014 at 6:57:23 PM

Latest Report: Jul 23, 2014 at 6:20 PM


Visibility: 10 mi

Pressure: 30.04 "Hg

Humidity: 40%

Dew point: 55 °F

Location of EmsdettenLocation

Historic Weather in Emsdetten — Graph

°F

Emsdetten temperature yesterday

Maximum temperature yesterday: 81 °F (at 4:20 PM)
Minimum temperature yesterday: 63 °F (at 4:50 AM)
Average temperature yesterday: 70 °F

Past Weeks' High & Low Weather Summary

 TemperatureHumidityPressure
High93 °F (Jul 19, 2:20 PM)100% (Jul 8, 6:20 PM)30.18 "Hg (Jul 8, 6:20 PM)
Low52 °F (Jul 15, 2:50 AM)19% (Jul 19, 3:20 PM)29.62 "Hg (Jul 9, 4:20 PM)
Average70 °F73%29.93 "Hg
* Reported Jul 8 5:20 PM — Jul 23 5:50 PM, Emsdetten, Weather by CustomWeather, © 2014

Note: Actual official high and low records may vary slightly from our data, if they occured in-between our weather recording intervals... More about our weather records

Advertising

Emsdetten weather history for previous 24 hours

 ConditionsComfort  
Time TempWeatherWind HumidityBarometerVisibility
5:50 PM
Jul 23
82 °FSunny.9 mph37%30.04 "Hg10 mi
5:20 PM82 °FSunny.9 mph35%30.04 "Hg10 mi
4:50 PM82 °FSunny.12 mph37%30.04 "Hg10 mi
4:20 PM82 °FSunny.12 mph35%30.04 "Hg10 mi
3:50 PM82 °FSunny.13 mph35%30.07 "Hg10 mi
3:20 PM82 °FSunny.13 mph32%30.07 "Hg10 mi
2:20 PM81 °FSunny.12 mph34%30.07 "Hg10 mi
1:50 PM81 °FSunny.12 mph39%30.09 "Hg10 mi
1:20 PM79 °FSunny.13 mph39%30.09 "Hg10 mi
12:20 PM79 °FSunny.14 mph42%30.09 "Hg10 mi
11:20 AM75 °FSunny.12 mph47%30.09 "Hg10 mi
7:50 AM68 °FSunny.13 mph73%30.12 "Hg10 mi
7:20 AM68 °FSunny.9 mph73%30.09 "Hg10 mi
6:50 AM66 °FSunny.8 mph73%30.09 "Hg10 mi
6:20 AM66 °FClear.9 mph78%30.09 "Hg10 mi
5:50 AM66 °FClear.7 mph78%30.09 "Hg10 mi
5:20 AM66 °FClear.8 mph78%30.09 "Hg10 mi
4:50 AM66 °FClear.8 mph78%30.09 "Hg10 mi
4:20 AM66 °FClear.5 mph78%30.09 "Hg10 mi
3:50 AM66 °FClear.5 mph73%30.09 "Hg10 mi
3:20 AM68 °FClear.3 mph73%30.09 "Hg10 mi
2:50 AM70 °FClear.9 mph69%30.09 "Hg10 mi
1:50 AM70 °FClear.8 mph73%30.09 "Hg10 mi
6:50 PM
Jul 22
81 °FPassing clouds.7 mph51%30.07 "HgN/A
6:20 PM81 °FPassing clouds.8 mph51%30.04 "HgN/A
Weather by CustomWeather, © 2014

See weather overviewHow to use our weather pages